| time (UTC) | temp F | wind direction | speed MPH | gust MPH | rain 1hr in | rain 24hr in | rain mn in | humidity % | barometer mb |
| 20260831134557 | 83 | 113 | 5.0 | 10.0 | 0.00 | 0.22 | 0.00 | 81 | 1018.5 |
| 20260831134047 | 82 | 86 | 4.0 | 10.0 | 0.00 | 0.22 | 0.00 | 82 | 1018.4 |
| 20260831133545 | 82 | 94 | 5.0 | 10.0 | 0.00 | 0.22 | 0.00 | 82 | 1018.4 |
| 20260831133058 | 82 | 114 | 5.0 | 9.0 | 0.00 | 0.22 | 0.00 | 82 | 1018.4 |
| 20260831132545 | 81 | 83 | 3.0 | 10.0 | 0.00 | 0.22 | 0.00 | 83 | 1018.3 |
| 20260831132046 | 81 | 78 | 3.0 | 10.0 | 0.00 | 0.22 | 0.00 | 83 | 1018.3 |
| 20260831131557 | 81 | 67 | 4.0 | 9.0 | 0.00 | 0.22 | 0.00 | 83 | 1018.3 |
| 20260831131045 | 80 | 48 | 2.0 | 8.0 | 0.00 | 0.22 | 0.00 | 84 | 1018.3 |
| 20260831130545 | 80 | 80 | 5.0 | 8.0 | 0.00 | 0.22 | 0.00 | 85 | 1018.4 |
| 20260831130101 | 79 | 96 | 4.0 | 8.0 | 0.00 | 0.22 | 0.00 | 85 | 1018.3 |
| 20260831125548 | 79 | 80 | 3.0 | 10.0 | 0.00 | 0.22 | 0.00 | 87 | 1018.2 |
| 20260831125045 | 78 | 103 | 5.0 | 10.0 | 0.00 | 0.22 | 0.00 | 87 | 1018.1 |
| 20260831124556 | 78 | 95 | 4.0 | 10.0 | 0.00 | 0.22 | 0.00 | 88 | 1018.1 |
| 20260831124045 | 78 | 80 | 3.0 | 8.0 | 0.00 | 0.22 | 0.00 | 89 | 1018.1 |
| 20260831123545 | 77 | 76 | 3.0 | 7.0 | 0.00 | 0.22 | 0.00 | 90 | 1018.0 |
| 20260831123057 | 77 | 98 | 3.0 | 7.0 | 0.00 | 0.22 | 0.00 | 90 | 1017.9 |
| 20260831122545 | 76 | 80 | 3.0 | 8.0 | 0.00 | 0.22 | 0.00 | 91 | 1017.9 |
| 20260831122045 | 76 | 126 | 4.0 | 10.0 | 0.00 | 0.22 | 0.00 | 91 | 1017.9 |
| 20260831121605 | 75 | 88 | 5.0 | 10.0 | 0.00 | 0.22 | 0.00 | 91 | 1017.9 |
| 20260831121043 | 75 | 108 | 3.0 | 11.0 | 0.00 | 0.22 | 0.00 | 91 | 1017.8 |
| 20260831120548 | 75 | 87 | 5.0 | 11.0 | 0.00 | 0.22 | 0.00 | 91 | 1017.8 |
| 20260831120100 | 75 | 112 | 3.0 | 8.0 | 0.00 | 0.22 | 0.00 | 91 | 1017.8 |
| 20260831115544 | 74 | 59 | 3.0 | 8.0 | 0.00 | 0.22 | 0.00 | 91 | 1017.8 |
| 20260831115045 | 74 | 57 | 2.0 | 8.0 | 0.00 | 0.22 | 0.00 | 91 | 1017.8 |
| 20260831114558 | 74 | 45 | 4.0 | 8.0 | 0.00 | 0.22 | 0.00 | 91 | 1017.7 |
| 20260831114047 | 74 | 38 | 3.0 | 8.0 | 0.00 | 0.22 | 0.00 | 91 | 1017.6 |
| 20260831113546 | 74 | 81 | 3.0 | 8.0 | 0.00 | 0.22 | 0.00 | 91 | 1017.4 |
| 20260831113107 | 74 | 101 | 2.0 | 7.0 | 0.00 | 0.22 | 0.00 | 91 | 1017.3 |
| 20260831112545 | 74 | 89 | 2.0 | 7.0 | 0.00 | 0.22 | 0.00 | 91 | 1017.3 |
| 20260831112045 | 74 | 93 | 3.0 | 7.0 | 0.00 | 0.22 | 0.00 | 91 | 1017.4 |
| 20260831111615 | 74 | 32 | 3.0 | 9.0 | 0.00 | 0.22 | 0.00 | 91 | 1017.4 |
| 20260831111046 | 74 | 84 | 3.0 | 9.0 | 0.00 | 0.22 | 0.00 | 90 | 1017.3 |
| 20260831110549 | 74 | 76 | 2.0 | 9.0 | 0.00 | 0.22 | 0.00 | 91 | 1017.2 |
| 20260831110137 | 74 | 73 | 3.0 | 7.0 | 0.00 | 0.22 | 0.00 | 90 | 1017.1 |
| 20260831105546 | 74 | 76 | 2.0 | 6.0 | 0.00 | 0.22 | 0.00 | 90 | 1017.1 |
| 20260831105046 | 74 | 80 | 3.0 | 6.0 | 0.00 | 0.22 | 0.00 | 90 | 1017.0 |
| 20260831104602 | 74 | 84 | 2.0 | 7.0 | 0.00 | 0.22 | 0.00 | 90 | 1016.8 |
| 20260831104046 | 74 | 59 | 4.0 | 9.0 | 0.00 | 0.22 | 0.00 | 90 | 1017.0 |
| 20260831103546 | 74 | 55 | 3.0 | 9.0 | 0.00 | 0.22 | 0.00 | 90 | 1016.9 |
| 20260831103101 | 74 | 65 | 3.0 | 9.0 | 0.00 | 0.22 | 0.00 | 90 | 1016.9 |
| 20260831102547 | 74 | 92 | 3.0 | 9.0 | 0.00 | 0.22 | 0.00 | 90 | 1016.9 |
| 20260831102049 | 74 | 57 | 2.0 | 6.0 | 0.00 | 0.22 | 0.00 | 90 | 1016.8 |
| 20260831101555 | 74 | 53 | 2.0 | 5.0 | 0.00 | 0.22 | 0.00 | 90 | 1016.8 |
| 20260831101047 | 74 | 39 | 2.0 | 4.0 | 0.00 | 0.22 | 0.00 | 90 | 1016.8 |
| 20260831100546 | 75 | 71 | 2.0 | 5.0 | 0.00 | 0.22 | 0.00 | 90 | 1016.6 |
| 20260831100108 | 75 | 71 | 1.0 | 5.0 | 0.00 | 0.22 | 0.00 | 90 | 1016.7 |
| 20260831095545 | 75 | 75 | 1.0 | 4.0 | 0.00 | 0.22 | 0.00 | 90 | 1016.7 |
| 20260831095046 | 75 | 75 | 2.0 | 4.0 | 0.00 | 0.22 | 0.00 | 90 | 1016.6 |
| 20260831094559 | 75 | 75 | 2.0 | 5.0 | 0.00 | 0.22 | 0.00 | 90 | 1016.5 |
| 20260831094050 | 75 | 71 | 1.0 | 5.0 | 0.00 | 0.22 | 0.00 | 90 | 1016.5 |
| 20260831093547 | 75 | 76 | 2.0 | 5.0 | 0.00 | 0.22 | 0.00 | 90 | 1016.3 |
| 20260831093059 | 74 | 85 | 1.0 | 4.0 | 0.00 | 0.22 | 0.00 | 90 | 1016.3 |
| 20260831092547 | 75 | 111 | 1.0 | 4.0 | 0.00 | 0.22 | 0.00 | 90 | 1016.3 |
| 20260831092045 | 75 | 112 | 1.0 | 4.0 | 0.00 | 0.22 | 0.00 | 90 | 1016.3 |
| 20260831091600 | 75 | 114 | 1.0 | 3.0 | 0.00 | 0.22 | 0.00 | 90 | 1016.4 |
| 20260831091046 | 75 | 113 | 1.0 | 3.0 | 0.00 | 0.22 | 0.00 | 90 | 1016.5 |
| 20260831090547 | 75 | 113 | 1.0 | 3.0 | 0.00 | 0.22 | 0.00 | 90 | 1016.5 |
| 20260831090059 | 75 | 113 | 1.0 | 4.0 | 0.00 | 0.22 | 0.00 | 90 | 1016.5 |
| 20260831085546 | 75 | 113 | 1.0 | 4.0 | 0.00 | 0.22 | 0.00 | 90 | 1016.4 |
| 20260831085046 | 75 | 115 | 2.0 | 4.0 | 0.00 | 0.22 | 0.00 | 90 | 1016.4 |
| 20260831084604 | 75 | 122 | 1.0 | 4.0 | 0.00 | 0.22 | 0.00 | 90 | 1016.4 |
| 20260831084046 | 75 | 122 | 1.0 | 4.0 | 0.00 | 0.22 | 0.00 | 90 | 1016.4 |
| 20260831083543 | 75 | 122 | 1.0 | 3.0 | 0.00 | 0.22 | 0.00 | 90 | 1016.4 |
| 20260831083104 | 75 | 122 | 1.0 | 4.0 | 0.00 | 0.22 | 0.00 | 90 | 1016.5 |
| 20260831082543 | 75 | 122 | 2.0 | 4.0 | 0.00 | 0.22 | 0.00 | 90 | 1016.5 |
| 20260831082046 | 75 | 122 | 2.0 | 4.0 | 0.00 | 0.22 | 0.00 | 90 | 1016.5 |
| 20260831081632 | 75 | 104 | 2.0 | 4.0 | 0.00 | 0.22 | 0.00 | 90 | 1016.5 |
| 20260831081048 | 74 | 102 | 2.0 | 6.0 | 0.00 | 0.22 | 0.00 | 89 | 1016.7 |
| 20260831080548 | 75 | 105 | 2.0 | 6.0 | 0.00 | 0.22 | 0.00 | 89 | 1016.7 |
| 20260831080057 | 75 | 101 | 2.0 | 4.0 | 0.00 | 0.22 | 0.00 | 89 | 1016.8 |
| 20260831075543 | 75 | 105 | 2.0 | 6.0 | 0.00 | 0.22 | 0.00 | 89 | 1016.8 |
| 20260831075043 | 75 | 104 | 2.0 | 6.0 | 0.00 | 0.22 | 0.00 | 89 | 1016.8 |
| 20260831074600 | 75 | 101 | 2.0 | 7.0 | 0.00 | 0.22 | 0.00 | 89 | 1016.7 |
| 20260831074043 | 75 | 96 | 1.0 | 7.0 | 0.00 | 0.22 | 0.00 | 89 | 1016.7 |
| 20260831073543 | 75 | 74 | 2.0 | 6.0 | 0.00 | 0.22 | 0.00 | 89 | 1016.8 |
| 20260831073134 | 75 | 83 | 2.0 | 6.0 | 0.00 | 0.22 | 0.00 | 89 | 1016.8 |
| 20260831072544 | 75 | 75 | 2.0 | 6.0 | 0.00 | 0.22 | 0.00 | 89 | 1016.8 |
| 20260831072051 | 75 | 92 | 2.0 | 5.0 | 0.00 | 0.22 | 0.00 | 89 | 1016.8 |
| 20260831071558 | 75 | 86 | 2.0 | 4.0 | 0.00 | 0.22 | 0.00 | 88 | 1017.0 |
| 20260831071046 | 75 | 80 | 2.0 | 5.0 | 0.00 | 0.22 | 0.00 | 88 | 1017.0 |
| 20260831070547 | 75 | 78 | 3.0 | 5.0 | 0.00 | 0.22 | 0.00 | 88 | 1017.0 |
| 20260831070059 | 75 | 84 | 1.0 | 5.0 | 0.00 | 0.22 | 0.00 | 88 | 1017.0 |
| 20260831065544 | 75 | 86 | 2.0 | 6.0 | 0.00 | 0.22 | 0.00 | 88 | 1017.1 |
| 20260831065044 | 75 | 66 | 2.0 | 6.0 | 0.00 | 0.22 | 0.00 | 88 | 1016.9 |
| 20260831064625 | 75 | 88 | 2.0 | 4.0 | 0.00 | 0.22 | 0.00 | 88 | 1017.1 |
| 20260831064049 | 75 | 76 | 1.0 | 7.0 | 0.00 | 0.22 | 0.00 | 88 | 1017.1 |
| 20260831063544 | 75 | 76 | 3.0 | 7.0 | 0.00 | 0.22 | 0.00 | 88 | 1017.0 |
| 20260831063101 | 75 | 84 | 2.0 | 4.0 | 0.00 | 0.22 | 0.00 | 88 | 1017.0 |
| 20260831062545 | 75 | 76 | 2.0 | 4.0 | 0.00 | 0.22 | 0.00 | 88 | 1017.1 |
| 20260831062047 | 75 | 74 | 1.0 | 4.0 | 0.00 | 0.22 | 0.00 | 88 | 1017.1 |
| 20260831061557 | 75 | 89 | 1.0 | 4.0 | 0.00 | 0.22 | 0.00 | 88 | 1017.2 |
| 20260831061048 | 75 | 84 | 1.0 | 5.0 | 0.00 | 0.22 | 0.00 | 88 | 1017.0 |
| 20260831060544 | 75 | 84 | 2.0 | 5.0 | 0.00 | 0.22 | 0.00 | 88 | 1017.2 |
| 20260831060113 | 75 | 69 | 2.0 | 5.0 | 0.00 | 0.22 | 0.00 | 88 | 1017.1 |
| 20260831055548 | 75 | 59 | 2.0 | 5.0 | 0.00 | 0.22 | 0.00 | 88 | 1017.1 |
| 20260831055047 | 75 | 67 | 1.0 | 5.0 | 0.00 | 0.22 | 0.00 | 88 | 1017.1 |
| 20260831054605 | 75 | 76 | 2.0 | 5.0 | 0.00 | 0.22 | 0.00 | 88 | 1017.1 |
| 20260831054047 | 75 | 94 | 2.0 | 6.0 | 0.00 | 0.22 | 0.00 | 88 | 1017.1 |
| 20260831053548 | 75 | 95 | 2.0 | 6.0 | 0.00 | 0.22 | 0.00 | 88 | 1017.1 |
| 20260831053059 | 75 | 82 | 2.0 | 4.0 | 0.00 | 0.22 | 0.00 | 88 | 1017.1 |
| 20260831052548 | 75 | 65 | 1.0 | 3.0 | 0.00 | 0.22 | 0.00 | 88 | 1017.0 |
| 20260831052045 | 75 | 65 | 1.0 | 4.0 | 0.00 | 0.22 | 0.00 | 88 | 1017.2 |
| 20260831051603 | 75 | 65 | 1.0 | 5.0 | 0.00 | 0.22 | 0.00 | 88 | 1017.2 |
| 20260831051047 | 75 | 65 | 1.0 | 5.0 | 0.00 | 0.22 | 0.00 | 88 | 1017.2 |
| 20260831050546 | 75 | 62 | 2.0 | 5.0 | 0.00 | 0.22 | 0.00 | 88 | 1017.3 |
| 20260831050140 | 75 | 36 | 2.0 | 5.0 | 0.00 | 0.22 | 0.00 | 88 | 1017.3 |
| 20260831045543 | 75 | 64 | 1.0 | 3.0 | 0.00 | 0.22 | 0.22 | 88 | 1017.3 |
| 20260831045045 | 75 | 63 | 1.0 | 4.0 | 0.00 | 0.22 | 0.22 | 88 | 1017.3 |
| 20260831044606 | 75 | 63 | 2.0 | 6.0 | 0.00 | 0.22 | 0.22 | 87 | 1017.2 |
| 20260831044046 | 75 | 61 | 3.0 | 6.0 | 0.00 | 0.22 | 0.22 | 87 | 1017.2 |
| 20260831043545 | 76 | 43 | 2.0 | 5.0 | 0.00 | 0.22 | 0.22 | 87 | 1017.2 |
| 20260831043057 | 76 | 34 | 2.0 | 5.0 | 0.00 | 0.22 | 0.22 | 87 | 1017.1 |
| 20260831042546 | 76 | 52 | 2.0 | 5.0 | 0.00 | 0.22 | 0.22 | 87 | 1017.1 |
| 20260831042046 | 76 | 30 | 3.0 | 5.0 | 0.00 | 0.22 | 0.22 | 87 | 1017.1 |
| 20260831041608 | 76 | 51 | 3.0 | 5.0 | 0.00 | 0.22 | 0.22 | 87 | 1017.2 |
| 20260831041044 | 76 | 65 | 2.0 | 5.0 | 0.00 | 0.22 | 0.22 | 86 | 1017.1 |
| 20260831040546 | 76 | 68 | 2.0 | 5.0 | 0.00 | 0.22 | 0.22 | 86 | 1017.0 |
| 20260831035545 | 76 | 65 | 2.0 | 6.0 | 0.00 | 0.22 | 0.22 | 86 | 1017.0 |
| 20260831035045 | 76 | 57 | 2.0 | 6.0 | 0.00 | 0.22 | 0.22 | 86 | 1017.0 |
| 20260831034557 | 76 | 57 | 3.0 | 6.0 | 0.00 | 0.22 | 0.22 | 86 | 1017.2 |
| 20260831034045 | 76 | 51 | 2.0 | 6.0 | 0.00 | 0.22 | 0.22 | 86 | 1017.1 |
| 20260831033546 | 76 | 50 | 3.0 | 6.0 | 0.00 | 0.22 | 0.22 | 86 | 1017.2 |
| 20260831033103 | 76 | 42 | 3.0 | 8.0 | 0.00 | 0.22 | 0.22 | 86 | 1017.1 |
| 20260831032546 | 76 | 62 | 3.0 | 8.0 | 0.00 | 0.22 | 0.22 | 86 | 1017.3 |
| 20260831032046 | 76 | 57 | 3.0 | 6.0 | 0.00 | 0.22 | 0.22 | 86 | 1017.3 |
| 20260831031557 | 77 | 49 | 3.0 | 6.0 | 0.00 | 0.22 | 0.22 | 85 | 1017.4 |
| 20260831031045 | 77 | 80 | 3.0 | 5.0 | 0.00 | 0.22 | 0.22 | 85 | 1017.3 |
| 20260831030547 | 77 | 58 | 2.0 | 5.0 | 0.00 | 0.22 | 0.22 | 85 | 1017.3 |
| 20260831025545 | 77 | 81 | 3.0 | 5.0 | 0.00 | 0.22 | 0.22 | 84 | 1017.2 |
| 20260831025045 | 77 | 69 | 1.0 | 4.0 | 0.00 | 0.22 | 0.22 | 84 | 1017.3 |
| 20260831024556 | 77 | 69 | 1.0 | 6.0 | 0.00 | 0.22 | 0.22 | 83 | 1017.2 |
| 20260831024045 | 78 | 68 | 2.0 | 6.0 | 0.00 | 0.22 | 0.22 | 83 | 1017.0 |
| 20260831023544 | 78 | 69 | 2.0 | 5.0 | 0.00 | 0.22 | 0.22 | 83 | 1017.1 |
| 20260831023104 | 78 | 61 | 2.0 | 6.0 | 0.00 | 0.22 | 0.22 | 84 | 1017.2 |
| 20260831022547 | 78 | 90 | 2.0 | 6.0 | 0.00 | 0.22 | 0.22 | 84 | 1017.0 |
| 20260831022046 | 78 | 88 | 2.0 | 5.0 | 0.00 | 0.22 | 0.22 | 84 | 1017.1 |
| 20260831021559 | 78 | 73 | 2.0 | 7.0 | 0.00 | 0.22 | 0.22 | 84 | 1017.0 |
| 20260831021046 | 78 | 81 | 3.0 | 7.0 | 0.00 | 0.22 | 0.22 | 84 | 1017.1 |
| 20260831020547 | 78 | 74 | 1.0 | 6.0 | 0.00 | 0.22 | 0.22 | 84 | 1017.1 |
| 20260831020057 | 78 | 76 | 1.0 | 6.0 | 0.00 | 0.22 | 0.22 | 83 | 1017.1 |
| 20260831015545 | 78 | 69 | 1.0 | 6.0 | 0.00 | 0.22 | 0.22 | 83 | 1017.1 |
| 20260831015043 | 78 | 50 | 2.0 | 6.0 | 0.00 | 0.22 | 0.22 | 83 | 1017.0 |
| 20260831014600 | 78 | 51 | 2.0 | 8.0 | 0.00 | 0.22 | 0.22 | 83 | 1017.1 |
| 20260831014047 | 79 | 83 | 2.0 | 8.0 | 0.00 | 0.22 | 0.22 | 83 | 1017.1 |
| 20260831013547 | 79 | 94 | 3.0 | 7.0 | 0.00 | 0.22 | 0.22 | 82 | 1017.0 |
| 20260831013057 | 79 | 42 | 3.0 | 8.0 | 0.00 | 0.22 | 0.22 | 82 | 1017.0 |
| 20260831012544 | 79 | 71 | 3.0 | 8.0 | 0.00 | 0.22 | 0.22 | 82 | 1017.0 |
| 20260831012043 | 79 | 67 | 3.0 | 10.0 | 0.00 | 0.22 | 0.22 | 82 | 1017.2 |
| 20260831011558 | 79 | 67 | 4.0 | 10.0 | 0.00 | 0.22 | 0.22 | 82 | 1017.2 |
| 20260831011046 | 79 | 88 | 4.0 | 10.0 | 0.00 | 0.22 | 0.22 | 82 | 1017.2 |
| 20260831010546 | 79 | 88 | 4.0 | 10.0 | 0.00 | 0.22 | 0.22 | 83 | 1017.1 |
| 20260831010104 | 79 | 82 | 4.0 | 8.0 | 0.00 | 0.22 | 0.22 | 83 | 1017.1 |
| 20260831005544 | 80 | 94 | 2.0 | 13.0 | 0.00 | 0.22 | 0.22 | 83 | 1017.0 |
| 20260831005044 | 79 | 75 | 4.0 | 13.0 | 0.00 | 0.22 | 0.22 | 83 | 1017.0 |
| 20260831004559 | 79 | 76 | 4.0 | 10.0 | 0.00 | 0.22 | 0.22 | 83 | 1017.0 |
| 20260831004044 | 79 | 100 | 2.0 | 4.0 | 0.00 | 0.22 | 0.22 | 84 | 1017.1 |
| 20260831003548 | 80 | 59 | 0.0 | 3.0 | 0.00 | 0.22 | 0.22 | 83 | 1017.0 |
| 20260831003056 | 80 | 0 | 0.0 | 5.0 | 0.00 | 0.22 | 0.22 | 83 | 1016.9 |
| 20260831002546 | 80 | 60 | 1.0 | 6.0 | 0.00 | 0.22 | 0.22 | 82 | 1017.0 |
| 20260831002048 | 80 | 71 | 3.0 | 8.0 | 0.00 | 0.22 | 0.22 | 82 | 1017.1 |
| 20260831001603 | 80 | 64 | 4.0 | 8.0 | 0.00 | 0.22 | 0.22 | 81 | 1017.1 |
| 20260831001046 | 80 | 39 | 3.0 | 6.0 | 0.00 | 0.22 | 0.22 | 80 | 1017.1 |
| 20260831000548 | 81 | 51 | 2.0 | 6.0 | 0.00 | 0.22 | 0.22 | 80 | 1017.0 |
| 20260831000104 | 81 | 57 | 3.0 | 8.0 | 0.00 | 0.22 | 0.22 | 79 | 1017.0 |
| 20260830235546 | 81 | 74 | 3.0 | 10.0 | 0.00 | 0.22 | 0.22 | 78 | 1016.9 |
| 20260830235046 | 82 | 46 | 3.0 | 11.0 | 0.00 | 0.22 | 0.22 | 78 | 1016.9 |
| 20260830234606 | 83 | 59 | 6.0 | 11.0 | 0.00 | 0.22 | 0.22 | 76 | 1017.0 |
| 20260830234046 | 83 | 74 | 2.0 | 6.0 | 0.00 | 0.22 | 0.22 | 76 | 1017.0 |
| 20260830233543 | 83 | 88 | 2.0 | 5.0 | 0.00 | 0.22 | 0.22 | 76 | 1016.8 |
| 20260830233108 | 84 | 83 | 1.0 | 4.0 | 0.00 | 0.22 | 0.22 | 79 | 1016.4 |
| 20260830232547 | 84 | 83 | 1.0 | 4.0 | 0.00 | 0.22 | 0.22 | 76 | 1016.3 |
| 20260830232045 | 84 | 82 | 1.0 | 4.0 | 0.00 | 0.22 | 0.22 | 76 | 1016.5 |
| 20260830231602 | 84 | 77 | 0.0 | 3.0 | 0.00 | 0.22 | 0.22 | 76 | 1016.4 |
| 20260830231045 | 84 | 77 | 0.0 | 4.0 | 0.00 | 0.22 | 0.22 | 75 | 1016.5 |
| 20260830230545 | 84 | 76 | 1.0 | 5.0 | 0.00 | 0.22 | 0.22 | 75 | 1016.5 |
| 20260830230058 | 84 | 76 | 2.0 | 8.0 | 0.00 | 0.22 | 0.22 | 74 | 1016.5 |
| 20260830225550 | 85 | 61 | 2.0 | 8.0 | 0.00 | 0.22 | 0.22 | 75 | 1016.6 |
| 20260830225047 | 85 | 76 | 4.0 | 7.0 | 0.00 | 0.22 | 0.22 | 74 | 1016.5 |
| 20260830224603 | 85 | 89 | 2.0 | 9.0 | 0.00 | 0.22 | 0.22 | 77 | 1016.5 |
| 20260830224045 | 84 | 63 | 4.0 | 9.0 | 0.00 | 0.22 | 0.22 | 78 | 1016.6 |
| 20260830223545 | 84 | 79 | 6.0 | 9.0 | 0.00 | 0.22 | 0.22 | 79 | 1016.5 |
| 20260830223106 | 84 | 90 | 5.0 | 9.0 | 0.00 | 0.22 | 0.22 | 78 | 1016.4 |
| 20260830222543 | 84 | 92 | 2.0 | 6.0 | 0.00 | 0.22 | 0.22 | 77 | 1016.2 |
| 20260830222047 | 83 | 108 | 2.0 | 4.0 | 0.00 | 0.22 | 0.22 | 74 | 1016.1 |
| 20260830221601 | 83 | 92 | 1.0 | 3.0 | 0.00 | 0.22 | 0.22 | 75 | 1016.2 |
| 20260830221047 | 83 | 0 | 0.0 | 5.0 | 0.00 | 0.22 | 0.22 | 75 | 1016.3 |
| 20260830220550 | 82 | 75 | 3.0 | 5.0 | 0.00 | 0.22 | 0.22 | 73 | 1016.4 |
| 20260830220105 | 82 | 141 | 2.0 | 4.0 | 0.00 | 0.22 | 0.22 | 77 | 1016.3 |
| 20260830215546 | 82 | 141 | 1.0 | 5.0 | 0.00 | 0.22 | 0.22 | 78 | 1016.3 |
| 20260830215046 | 82 | 141 | 2.0 | 8.0 | 0.00 | 0.22 | 0.22 | 82 | 1016.3 |
| 20260830214558 | 82 | 188 | 3.0 | 8.0 | 0.00 | 0.22 | 0.22 | 80 | 1016.2 |
| 20260830214048 | 82 | 174 | 3.0 | 8.0 | 0.00 | 0.22 | 0.22 | 80 | 1016.2 |
| 20260830213546 | 82 | 213 | 3.0 | 6.0 | 0.00 | 0.22 | 0.22 | 81 | 1016.2 |
| 20260830213109 | 82 | 221 | 2.0 | 6.0 | 0.00 | 0.22 | 0.22 | 81 | 1016.2 |
| 20260830212550 | 82 | 194 | 2.0 | 5.0 | 0.00 | 0.22 | 0.22 | 82 | 1016.4 |
| 20260830212046 | 82 | 190 | 1.0 | 6.0 | 0.00 | 0.22 | 0.22 | 81 | 1016.5 |
| 20260830211558 | 82 | 189 | 2.0 | 7.0 | 0.00 | 0.22 | 0.22 | 81 | 1016.6 |
| 20260830211046 | 82 | 187 | 3.0 | 7.0 | 0.00 | 0.22 | 0.22 | 80 | 1016.7 |
| 20260830210546 | 81 | 157 | 3.0 | 6.0 | 0.00 | 0.22 | 0.22 | 80 | 1016.7 |
| 20260830210058 | 82 | 193 | 2.0 | 8.0 | 0.00 | 0.22 | 0.22 | 81 | 1016.7 |
| 20260830205547 | 82 | 180 | 3.0 | 10.0 | 0.07 | 0.22 | 0.22 | 80 | 1016.6 |
| 20260830205046 | 81 | 189 | 4.0 | 12.0 | 0.17 | 0.22 | 0.22 | 82 | 1016.7 |
| 20260830204557 | 81 | 205 | 6.0 | 16.0 | 0.21 | 0.22 | 0.22 | 81 | 1016.7 |
| 20260830204046 | 82 | 196 | 7.0 | 16.0 | 0.22 | 0.22 | 0.22 | 85 | 1016.6 |
| 20260830203547 | 83 | 186 | 5.0 | 20.0 | 0.22 | 0.22 | 0.22 | 81 | 1016.6 |
| 20260830203100 | 83 | 164 | 7.0 | 20.0 | 0.22 | 0.22 | 0.22 | 80 | 1016.7 |
| 20260830202549 | 85 | 188 | 4.0 | 9.0 | 0.22 | 0.22 | 0.22 | 80 | 1016.8 |
| 20260830202046 | 84 | 190 | 3.0 | 9.0 | 0.22 | 0.22 | 0.22 | 83 | 1016.8 |
| 20260830201618 | 82 | 151 | 2.0 | 6.0 | 0.22 | 0.22 | 0.22 | 85 | 1016.6 |
| 20260830201045 | 81 | 164 | 2.0 | 8.0 | 0.22 | 0.22 | 0.22 | 86 | 1016.6 |
| 20260830200546 | 80 | 165 | 2.0 | 9.0 | 0.22 | 0.22 | 0.22 | 87 | 1016.7 |
| 20260830200104 | 80 | 198 | 4.0 | 17.0 | 0.22 | 0.22 | 0.22 | 85 | 1016.8 |
| 20260830195543 | 81 | 167 | 8.0 | 17.0 | 0.14 | 0.14 | 0.14 | 83 | 1017.0 |
| 20260830195044 | 85 | 159 | 6.0 | 17.0 | 0.05 | 0.05 | 0.05 | 80 | 1017.1 |
| 20260830194604 | 87 | 167 | 8.0 | 17.0 | 0.00 | 0.00 | 0.00 | 73 | 1017.0 |
| 20260830194046 | 89 | 199 | 4.0 | 11.0 | 0.00 | 0.00 | 0.00 | 66 | 1016.8 |
| 20260830193551 | 91 | 167 | 5.0 | 11.0 | 0.00 | 0.00 | 0.00 | 66 | 1017.0 |
| 20260830193059 | 91 | 193 | 4.0 | 10.0 | 0.00 | 0.00 | 0.00 | 62 | 1017.0 |
| 20260830192546 | 91 | 157 | 3.0 | 8.0 | 0.00 | 0.00 | 0.00 | 65 | 1017.1 |
| 20260830192043 | 92 | 150 | 3.0 | 8.0 | 0.00 | 0.00 | 0.00 | 64 | 1017.3 |
| 20260830191631 | 91 | 147 | 2.0 | 8.0 | 0.00 | 0.00 | 0.00 | 65 | 1017.3 |
| 20260830191043 | 91 | 121 | 2.0 | 8.0 | 0.00 | 0.00 | 0.00 | 66 | 1017.4 |
| 20260830190546 | 90 | 144 | 3.0 | 9.0 | 0.00 | 0.00 | 0.00 | 64 | 1017.5 |
| 20260830190114 | 91 | 174 | 4.0 | 9.0 | 0.00 | 0.00 | 0.00 | 67 | 1017.5 |
| 20260830185546 | 91 | 192 | 4.0 | 11.0 | 0.00 | 0.00 | 0.00 | 65 | 1017.6 |
| 20260830185047 | 91 | 105 | 4.0 | 11.0 | 0.00 | 0.00 | 0.00 | 64 | 1017.6 |
| 20260830184558 | 92 | 184 | 5.0 | 14.0 | 0.00 | 0.00 | 0.00 | 63 | 1017.6 |
| 20260830184046 | 91 | 198 | 6.0 | 14.0 | 0.00 | 0.00 | 0.00 | 63 | 1017.7 |
| 20260830183543 | 92 | 153 | 5.0 | 12.0 | 0.00 | 0.00 | 0.00 | 66 | 1017.7 |
| 20260830183108 | 91 | 156 | 7.0 | 12.0 | 0.00 | 0.00 | 0.00 | 65 | 1017.7 |
| 20260830182546 | 91 | 142 | 4.0 | 12.0 | 0.00 | 0.00 | 0.00 | 69 | 1017.7 |
| 20260830182046 | 91 | 165 | 6.0 | 12.0 | 0.00 | 0.00 | 0.00 | 65 | 1017.7 |
| 20260830181602 | 91 | 173 | 4.0 | 11.0 | 0.00 | 0.00 | 0.00 | 66 | 1017.7 |
| 20260830181042 | 92 | 175 | 5.0 | 11.0 | 0.00 | 0.00 | 0.00 | 64 | 1018.0 |
| 20260830180547 | 91 | 179 | 5.0 | 10.0 | 0.00 | 0.00 | 0.00 | 65 | 1018.1 |
| 20260830180108 | 91 | 157 | 4.0 | 10.0 | 0.00 | 0.00 | 0.00 | 65 | 1018.1 |
| 20260830175548 | 91 | 145 | 3.0 | 10.0 | 0.00 | 0.00 | 0.00 | 66 | 1018.2 |
| 20260830175046 | 90 | 155 | 4.0 | 10.0 | 0.00 | 0.00 | 0.00 | 69 | 1018.2 |
| 20260830174601 | 91 | 152 | 5.0 | 10.0 | 0.00 | 0.00 | 0.00 | 64 | 1018.1 |
| 20260830174044 | 91 | 127 | 5.0 | 10.0 | 0.00 | 0.00 | 0.00 | 66 | 1018.1 |
| 20260830173546 | 90 | 125 | 4.0 | 14.0 | 0.00 | 0.00 | 0.00 | 65 | 1018.2 |
| 20260830173109 | 90 | 86 | 6.0 | 14.0 | 0.00 | 0.00 | 0.00 | 63 | 1018.1 |
| 20260830172548 | 89 | 72 | 5.0 | 14.0 | 0.00 | 0.00 | 0.00 | 65 | 1018.2 |
| 20260830172047 | 89 | 151 | 6.0 | 10.0 | 0.00 | 0.00 | 0.00 | 67 | 1018.1 |
| 20260830171605 | 90 | 167 | 4.0 | 9.0 | 0.00 | 0.00 | 0.00 | 70 | 1018.4 |
| 20260830171046 | 90 | 140 | 4.0 | 10.0 | 0.00 | 0.00 | 0.00 | 69 | 1018.4 |
| 20260830170544 | 90 | 146 | 5.0 | 10.0 | 0.00 | 0.00 | 0.00 | 68 | 1018.5 |
| 20260830170100 | 90 | 141 | 4.0 | 11.0 | 0.00 | 0.00 | 0.00 | 66 | 1018.6 |
| 20260830165543 | 90 | 124 | 3.0 | 11.0 | 0.00 | 0.00 | 0.00 | 69 | 1018.6 |
| 20260830165043 | 89 | 144 | 7.0 | 11.0 | 0.00 | 0.00 | 0.00 | 69 | 1018.8 |
| 20260830164558 | 90 | 121 | 4.0 | 10.0 | 0.00 | 0.00 | 0.00 | 71 | 1018.8 |
| 20260830164043 | 89 | 112 | 5.0 | 10.0 | 0.00 | 0.00 | 0.00 | 74 | 1018.8 |
| 20260830163546 | 89 | 114 | 5.0 | 13.0 | 0.00 | 0.00 | 0.00 | 70 | 1018.8 |
| 20260830163105 | 89 | 128 | 4.0 | 13.0 | 0.00 | 0.00 | 0.00 | 74 | 1018.9 |
| 20260830162542 | 88 | 146 | 4.0 | 11.0 | 0.00 | 0.00 | 0.00 | 73 | 1019.0 |
| 20260830162047 | 87 | 120 | 3.0 | 11.0 | 0.00 | 0.00 | 0.00 | 74 | 1019.1 |
| 20260830161611 | 86 | 119 | 3.0 | 10.0 | 0.00 | 0.00 | 0.00 | 75 | 1019.2 |
| 20260830161044 | 85 | 103 | 4.0 | 10.0 | 0.00 | 0.00 | 0.00 | 79 | 1019.3 |
| 20260830160544 | 85 | 144 | 3.0 | 10.0 | 0.00 | 0.00 | 0.00 | 76 | 1019.3 |
| 20260830160105 | 85 | 103 | 3.0 | 9.0 | 0.00 | 0.00 | 0.00 | 76 | 1019.3 |
| 20260830155543 | 85 | 150 | 3.0 | 9.0 | 0.00 | 0.00 | 0.00 | 76 | 1019.3 |
| 20260830155043 | 85 | 123 | 3.0 | 10.0 | 0.00 | 0.00 | 0.00 | 76 | 1019.4 |
| 20260830154606 | 85 | 98 | 3.0 | 12.0 | 0.00 | 0.00 | 0.00 | 77 | 1019.3 |
| 20260830154043 | 85 | 109 | 3.0 | 12.0 | 0.00 | 0.00 | 0.00 | 76 | 1019.2 |
| 20260830153543 | 85 | 136 | 3.0 | 9.0 | 0.00 | 0.00 | 0.00 | 78 | 1019.2 |
| 20260830153107 | 85 | 132 | 3.0 | 10.0 | 0.00 | 0.00 | 0.00 | 77 | 1019.2 |
| 20260830152544 | 86 | 93 | 4.0 | 10.0 | 0.00 | 0.00 | 0.00 | 75 | 1019.1 |
| 20260830152046 | 86 | 104 | 3.0 | 8.0 | 0.00 | 0.00 | 0.00 | 77 | 1019.1 |
| 20260830151601 | 85 | 142 | 4.0 | 10.0 | 0.00 | 0.00 | 0.00 | 76 | 1019.0 |
| 20260830151044 | 86 | 134 | 4.0 | 10.0 | 0.00 | 0.00 | 0.00 | 76 | 1018.9 |
| 20260830150547 | 85 | 76 | 4.0 | 10.0 | 0.00 | 0.00 | 0.00 | 76 | 1018.9 |
| 20260830150057 | 85 | 122 | 3.0 | 13.0 | 0.00 | 0.00 | 0.00 | 77 | 1018.9 |
| 20260830145544 | 85 | 90 | 4.0 | 13.0 | 0.00 | 0.26 | 0.00 | 77 | 1019.0 |
| 20260830145046 | 84 | 103 | 7.0 | 13.0 | 0.00 | 0.26 | 0.00 | 77 | 1019.0 |
| 20260830144607 | 84 | 84 | 5.0 | 11.0 | 0.00 | 0.26 | 0.00 | 78 | 1019.0 |
| 20260830144044 | 84 | 121 | 4.0 | 13.0 | 0.00 | 0.26 | 0.00 | 79 | 1019.0 |
| 20260830143546 | 83 | 114 | 7.0 | 13.0 | 0.00 | 0.26 | 0.00 | 79 | 1019.0 |
| 20260830143100 | 83 | 121 | 7.0 | 13.0 | 0.00 | 0.26 | 0.00 | 78 | 1018.9 |
| 20260830142547 | 83 | 91 | 7.0 | 13.0 | 0.00 | 0.26 | 0.00 | 79 | 1018.9 |
| 20260830142044 | 82 | 80 | 6.0 | 12.0 | 0.00 | 0.26 | 0.00 | 79 | 1018.8 |
| 20260830141557 | 82 | 121 | 7.0 | 12.0 | 0.00 | 0.26 | 0.00 | 79 | 1018.8 |
| 20260830141046 | 82 | 124 | 2.0 | 12.0 | 0.00 | 0.26 | 0.00 | 80 | 1018.7 |
| 20260830140548 | 82 | 111 | 7.0 | 12.0 | 0.00 | 0.26 | 0.00 | 79 | 1018.7 |
| 20260830140108 | 81 | 76 | 6.0 | 12.0 | 0.00 | 0.26 | 0.00 | 80 | 1018.8 |
| 20260830135546 | 81 | 87 | 6.0 | 13.0 | 0.00 | 0.26 | 0.00 | 81 | 1018.8 |
| 20260830135044 | 80 | 115 | 6.0 | 14.0 | 0.00 | 0.26 | 0.00 | 82 | 1018.9 |